[[{"header":{"parameterUnit":"m.s-1","parameterCategory":1,"la1":30.2991,"la2":30.254,"lo1":-89.0895,"lo2":-89.0444,"dy":0.0017,"dx":0.0017,"nx":28,"ny":28,"refTime":"2025-09-14T03:00:00:Z","depth":0,"parameterNumber":2,"parameterNumberName":"U-component_of_WINDS"},"data":[0,0,0,0,0,0,0,0,0,0,0,0,0,0,0,0,0,0,0,0,0,0,0,0,0,0,0,0,0,0,0,0,0,0,0,0,0,0,0,0,0,0,0,0,0,0,0,0,0,0,0,0,0,0,0,0,0,0,-2.8586,-2.8586,0,-2.8541,-2.8541,-2.854,-2.8484,-2.8483,-2.8483,-2.8482,-2.8436,-2.8435,-2.8435,0,0,0,0,0,0,0,0,0,0,0,0,0,-2.8625,-2.8624,-2.8586,-2.8586,-2.8585,-2.8541,-2.8541,-2.854,-2.8484,-2.8483,-2.8482,-2.8481,-2.8436,-2.8435,-2.8435,0,0,0,0,0,0,0,0,0,0,0,0,0,-2.8597,-2.8624,-2.8586,-2.8552,-2.8549,-2.8542,-2.8541,-2.854,-2.8485,-2.8483,-2.8482,-2.8481,-2.8436,-2.8435,-2.8435,-2.8458,0,0,-2.8433,-2.8433,0,0,0,0,0,0,0,0,-2.8598,-2.8595,-2.8558,-2.8554,-2.855,-2.8517,-2.8537,-2.8512,-2.8485,-2.8509,-2.8482,-2.848,-2.8464,-2.8461,-2.8455,-2.8456,-2.8454,-2.8433,-2.8433,-2.8432,-2.8432,0,0,0,0,0,0,0,-2.86,-2.8597,-2.8568,-2.8557,-2.8553,-2.8539,-2.8534,-2.8532,-2.8494,-2.8507,-2.8503,-2.8498,-2.8462,-2.8456,-2.8454,-2.8453,-2.8433,-2.8432,-2.8432,-2.8432,-2.8472,-2.8473,0,0,0,0,0,0,-2.8607,-2.8599,-2.857,-2.8567,-2.8572,-2.854,-2.8534,-2.8529,-2.8494,-2.8488,-2.8499,-2.8496,-2.8458,-2.8455,-2.8452,-2.8477,-2.8432,-2.8432,-2.8431,-2.847,-2.8472,-2.8473,0,0,0,0,0,0,-2.8608,-2.8605,-2.8572,-2.8582,-2.8577,-2.854,-2.8536,-2.8529,-2.8523,-2.8489,-2.8482,-2.85,-2.8457,-2.8453,-2.8457,-2.8475,-2.8431,-2.8431,-2.8469,-2.8471,-2.8473,-2.8528,0,0,0,0,0,0,-2.861,-2.8606,-2.8614,-2.8583,-2.8576,-2.8577,-2.8537,-2.8529,-2.8522,-2.8517,-2.8488,-2.8482,-2.8455,-2.8458,-2.8457,-2.8473,-2.843,-2.8467,-2.847,-2.8472,-2.8524,-2.8532,-2.8538,0,0,0,0,0,-2.8611,-2.8631,-2.8615,-2.8611,-2.8585,-2.8578,-2.8575,-2.8544,-2.8524,-2.8532,-2.851,-2.8483,-2.8474,-2.8459,-2.8457,-2.8474,-2.8466,-2.8469,-2.8472,-2.8521,-2.853,-2.8538,0,0,0,0,0,0,-2.8665,-2.8626,-2.8608,-2.8617,-2.8602,-2.8569,-2.8578,-2.8554,-2.8543,-2.8539,-2.8501,-2.8495,-2.8504,-2.8489,-2.8474,-2.8495,-2.8466,-2.8469,-2.8504,-2.8512,-2.8519,-2.8522,-2.843,0,0,0,0,0,-2.8678,-2.8675,-2.8642,-2.8654,-2.8647,-2.8614,-2.861,-2.8588,-2.857,-2.8562,-2.8541,-2.8525,-2.8518,-2.8514,-2.8506,-2.8522,-2.8516,-2.8533,-2.854,-2.8546,-2.8548,-2.8557,-2.8564,-2.8484,-2.8484,-2.8484,0,0,-2.8704,-2.8683,-2.8683,-2.8664,-2.8649,-2.8647,-2.8608,-2.8608,-2.8607,-2.8562,-2.8565,-2.8549,-2.8529,-2.8539,-2.8543,-2.8527,-2.8569,-2.855,-2.8555,-2.8554,-2.8561,-2.8568,-2.8575,-2.8486,-2.8486,-2.8485,0,0,-2.8752,-2.8735,-2.8744,-2.873,-2.8709,-2.8687,-2.869,-2.8661,-2.8648,-2.8651,-2.8618,-2.8616,-2.8606,-2.8593,-2.8585,-2.8631,-2.8605,-2.8629,-2.8664,-2.8673,-2.8679,-2.8685,-2.8701,-2.8708,-2.8632,-2.8632,-2.8632,0,-2.8787,-2.8783,-2.8751,-2.8753,-2.8746,-2.8707,-2.8716,-2.8704,-2.8681,-2.8678,-2.8661,-2.8648,-2.8631,-2.8639,-2.865,-2.8645,-2.8647,-2.8632,-2.8681,-2.8686,-2.8691,-2.8706,-2.8713,-2.8635,-2.8635,-2.8635,-2.8634,0,-2.8829,-2.8827,-2.8836,-2.8816,-2.881,-2.8816,-2.8785,-2.8783,-2.8762,-2.8743,-2.8747,-2.8726,-2.8713,-2.8714,-2.8693,-2.8719,-2.871,-2.8688,-2.8657,-2.8702,-2.8716,-2.8721,-2.864,-2.8639,-2.8638,-2.8637,0,0,-2.8906,-2.887,-2.8874,-2.8864,-2.8839,-2.8837,-2.8842,-2.883,-2.8829,-2.8816,-2.8819,-2.8812,-2.8792,-2.8783,-2.8761,-2.8769,-2.8807,-2.8745,-2.8744,-2.8758,-2.8835,-2.8852,-2.8859,-2.8791,-2.8792,-2.8793,-2.8837,0,-2.8949,-2.8954,-2.8926,-2.8939,-2.8938,-2.8902,-2.8906,-2.8891,-2.8874,-2.887,-2.8851,-2.8847,-2.8821,-2.8815,-2.8821,-2.8801,-2.8822,-2.8798,-2.8794,-2.8794,-2.8799,-2.8867,-2.8884,-2.8926,-2.8842,-2.8843,-2.8844,0,-2.8998,-2.8988,-2.9001,-2.8976,-2.8975,-2.8979,-2.8967,-2.8964,-2.8947,-2.8934,-2.8926,-2.8901,-2.8905,-2.8877,-2.8882,-2.8866,-2.8863,-2.8853,-2.8854,-2.8852,-2.8821,-2.8866,-2.8939,-2.8946,-2.8852,-2.8851,-2.8851,0,-2.9054,-2.9043,-2.905,-2.9043,-2.9015,-2.9019,-2.9007,-2.8989,-2.8985,-2.8975,-2.8971,-2.8962,-2.8957,-2.8951,-2.8924,-2.8906,-2.8933,-2.8902,-2.8922,-2.8923,-2.8928,-2.8928,-2.9002,-2.8928,-2.8928,-2.8928,-2.8928,0,-2.9104,-2.9113,-2.9075,-2.9079,-2.9089,-2.9058,-2.9069,-2.9053,-2.9038,-2.9039,-2.9008,-2.901,-2.8975,-2.8973,-2.8953,-2.8961,-2.8958,-2.8948,-2.8943,-2.8951,-2.8952,-2.8948,-2.8944,-2.8929,-2.8929,-2.8929,-2.8928,0,-2.9166,-2.9141,-2.9146,-2.912,-2.9113,-2.9122,-2.9099,-2.9102,-2.9084,-2.9086,-2.9085,-2.9056,-2.9052,-2.9026,-2.9016,-2.9003,-2.9018,-2.9007,-2.9024,-2.902,-2.9041,-2.904,-2.9114,-2.9123,-2.9044,-2.9045,-2.9045,0,-2.9199,-2.9206,-2.9181,-2.9179,-2.9169,-2.9167,-2.9163,-2.9134,-2.913,-2.9113,-2.9119,-2.9113,-2.9106,-2.9103,-2.9081,-2.9074,-2.9063,-2.9089,-2.9061,-2.907,-2.9063,-2.9063,-2.9064,-2.9095,-2.9096,-2.9097,-2.9097,0,-2.9261,-2.9249,-2.9244,-2.9235,-2.9231,-2.9222,-2.9212,-2.9213,-2.9181,-2.9179,-2.9175,-2.917,-2.9162,-2.9156,-2.9146,-2.9135,-2.9111,-2.9107,-2.9111,-2.9119,-2.9129,-2.9124,-2.904,-2.9105,-2.9104,-2.9104,-2.9103,-2.9103,-2.931,-2.9314,-2.9298,-2.9294,-2.9283,-2.9275,-2.9277,-2.926,-2.9256,-2.9246,-2.923,-2.9229,-2.9214,-2.9198,-2.9188,-2.9188,-2.9174,-2.918,-2.9181,-2.9183,-2.9188,-2.913,-2.9186,-2.9186,-2.9185,-2.9185,-2.9185,0,-2.9369,-2.9358,-2.9354,-2.9341,-2.9339,-2.9318,-2.9306,-2.9305,-2.9305,-2.9293,-2.9288,-2.9284,-2.928,-2.9259,-2.9253,-2.9256,-2.9245,-2.9256,-2.9255,-2.9253,-2.92,-2.9197,-2.9264,-2.9264,-2.9264,-2.9264,-2.9264,-2.9264,-2.94,-2.9407,-2.9394,-2.9396,-2.9384,-2.9383,-2.9378,-2.9371,-2.9361,-2.9359,-2.9355,-2.9342,-2.9327,-2.9319,-2.9315,-2.9309,-2.9308,-2.9322,-2.9312,-2.9264,-2.9256,-2.9249,-2.9246,-2.9322,-2.9322,-2.9364,-2.9365,-2.9365]},{"header":{"parameterUnit":"m.s-1","parameterCategory":1,"la1":30.2991,"la2":30.254,"lo1":-89.0895,"lo2":-89.0444,"dy":0.0017,"dx":0.0017,"nx":28,"ny":28,"refTime":"2025-09-14T03:00:00:Z","depth":0,"parameterNumber":3,"parameterNumberName":"V-component_of_WINDS"},"data":[0,0,0,0,0,0,0,0,0,0,0,0,0,0,0,0,0,0,0,0,0,0,0,0,0,0,0,0,0,0,0,0,0,0,0,0,0,0,0,0,0,0,0,0,0,0,0,0,0,0,0,0,0,0,0,0,0,0,1.3246,1.3246,0,1.321,1.3209,1.3209,1.324,1.3242,1.3243,1.3244,1.3201,1.3199,1.3197,0,0,0,0,0,0,0,0,0,0,0,0,0,1.3337,1.3335,1.3246,1.3245,1.3245,1.321,1.3209,1.3209,1.324,1.3242,1.3243,1.3245,1.3202,1.3199,1.3196,0,0,0,0,0,0,0,0,0,0,0,0,0,1.3298,1.3334,1.3246,1.3257,1.3257,1.321,1.3209,1.3209,1.324,1.3242,1.3244,1.3245,1.3203,1.32,1.3196,1.3135,0,0,1.3185,1.3184,0,0,0,0,0,0,0,0,1.33,1.3295,1.3255,1.3256,1.3256,1.3232,1.3226,1.3184,1.3239,1.3246,1.3244,1.3246,1.3209,1.3205,1.3194,1.3133,1.3131,1.3185,1.3183,1.3181,1.318,0,0,0,0,0,0,0,1.3303,1.3297,1.3232,1.3255,1.3255,1.3261,1.3258,1.3218,1.3217,1.3246,1.3248,1.3243,1.321,1.3198,1.3193,1.313,1.3185,1.3182,1.318,1.3178,1.3016,1.3014,0,0,0,0,0,0,1.3305,1.3299,1.3233,1.323,1.3284,1.3258,1.3254,1.3237,1.3218,1.3217,1.3242,1.3245,1.3203,1.3198,1.3192,1.3118,1.3181,1.3178,1.3176,1.3018,1.3015,1.3013,0,0,0,0,0,0,1.3307,1.3299,1.3234,1.3265,1.3257,1.3254,1.3235,1.3236,1.3223,1.3215,1.3214,1.323,1.3204,1.3197,1.3149,1.3117,1.3176,1.3173,1.302,1.3017,1.3014,1.2969,0,0,0,0,0,0,1.331,1.33,1.3278,1.3265,1.3256,1.3193,1.3233,1.3234,1.3218,1.3222,1.3203,1.3202,1.3205,1.3154,1.3145,1.3113,1.317,1.3023,1.3019,1.3015,1.2973,1.2965,1.2957,0,0,0,0,0,1.3313,1.3265,1.3276,1.3268,1.3228,1.3191,1.3186,1.3192,1.3215,1.3192,1.3186,1.3202,1.3122,1.3149,1.3139,1.3105,1.3025,1.302,1.3015,1.2977,1.2966,1.2957,0,0,0,0,0,0,1.3272,1.3264,1.3276,1.3223,1.3208,1.3197,1.3167,1.3181,1.3157,1.3161,1.3169,1.3164,1.3113,1.3105,1.3135,1.3044,1.3077,1.307,1.3051,1.3041,1.3033,1.3035,1.3167,0,0,0,0,0,1.3258,1.3231,1.3224,1.3178,1.317,1.317,1.3154,1.3161,1.3144,1.3137,1.3128,1.311,1.3081,1.3061,1.3034,1.2973,1.2968,1.2945,1.2937,1.2931,1.2923,1.2889,1.2878,1.2997,1.2997,1.2997,0,0,1.3227,1.3219,1.32,1.317,1.3158,1.3128,1.3164,1.313,1.3107,1.3131,1.3085,1.3078,1.3058,1.3004,1.2979,1.2995,1.289,1.2924,1.2919,1.2915,1.2883,1.2871,1.2861,1.2993,1.2994,1.2994,0,0,1.3153,1.3146,1.3106,1.3094,1.3078,1.3079,1.3069,1.3056,1.3052,1.3007,1.3025,1.2996,1.2946,1.2931,1.2917,1.2839,1.2851,1.283,1.2786,1.2752,1.2743,1.2735,1.2704,1.2694,1.2823,1.2823,1.2823,0,1.3115,1.3072,1.3083,1.3048,1.3033,1.3057,1.3015,1.3003,1.2977,1.2965,1.2985,1.2922,1.291,1.2851,1.2833,1.2821,1.2808,1.283,1.2744,1.2736,1.2728,1.2699,1.2688,1.282,1.282,1.2821,1.2821,0,1.3025,1.2994,1.2964,1.2941,1.2923,1.2884,1.2888,1.2868,1.2877,1.2875,1.2827,1.2815,1.2785,1.2772,1.2779,1.2713,1.2724,1.2743,1.2776,1.2714,1.2686,1.2676,1.2816,1.2817,1.2818,1.2819,0,0,1.2923,1.2908,1.2896,1.2885,1.2869,1.2844,1.2807,1.278,1.2761,1.2744,1.271,1.2668,1.2686,1.267,1.2676,1.2647,1.2583,1.267,1.2669,1.2652,1.2507,1.249,1.2477,1.2593,1.2591,1.2589,1.2508,0,1.2847,1.2783,1.2793,1.273,1.2701,1.2723,1.269,1.2676,1.2673,1.2646,1.2643,1.2612,1.264,1.263,1.2603,1.2596,1.2553,1.2603,1.2559,1.2557,1.256,1.2464,1.2446,1.2369,1.2498,1.2496,1.2495,0,1.2749,1.2729,1.2664,1.2653,1.2641,1.2611,1.2586,1.2561,1.2545,1.2545,1.2528,1.2539,1.2499,1.2535,1.2479,1.2512,1.2495,1.249,1.2487,1.248,1.252,1.2452,1.2346,1.2333,1.2478,1.248,1.2481,0,1.2678,1.2635,1.259,1.2581,1.2567,1.2545,1.2538,1.2524,1.2506,1.2484,1.2473,1.2446,1.243,1.2409,1.2411,1.2438,1.2353,1.239,1.235,1.235,1.2328,1.2329,1.2215,1.2323,1.2323,1.2323,1.2323,0,1.259,1.2549,1.2558,1.253,1.2484,1.2495,1.2448,1.2444,1.2431,1.2401,1.242,1.2391,1.2398,1.2369,1.2371,1.2323,1.2316,1.2313,1.2314,1.231,1.231,1.2297,1.2301,1.232,1.2321,1.2321,1.2322,0,1.2501,1.2506,1.2459,1.245,1.2447,1.2413,1.2404,1.2377,1.2377,1.2339,1.233,1.2329,1.2296,1.2298,1.226,1.2261,1.2201,1.2209,1.2207,1.2207,1.2166,1.2169,1.2037,1.2019,1.2141,1.214,1.2139,0,1.2444,1.2413,1.2401,1.2383,1.2375,1.2346,1.2329,1.2339,1.232,1.2299,1.2274,1.2243,1.2218,1.2164,1.2158,1.2129,1.2134,1.209,1.2129,1.2126,1.213,1.2131,1.2126,1.2081,1.208,1.2079,1.2078,0,1.234,1.2344,1.232,1.2296,1.2275,1.2257,1.2239,1.2223,1.2231,1.2209,1.2176,1.2157,1.2119,1.2087,1.2059,1.205,1.2063,1.2066,1.2054,1.2048,1.2047,1.2045,1.2182,1.2068,1.2069,1.207,1.207,1.2071,1.2263,1.2236,1.2223,1.2195,1.2184,1.2168,1.2141,1.2139,1.2112,1.2083,1.2091,1.2053,1.2037,1.2001,1.1989,1.1958,1.1974,1.1958,1.1953,1.1948,1.1942,1.2055,1.1954,1.1954,1.1954,1.1955,1.1955,0,1.2158,1.2151,1.2126,1.2102,1.2079,1.2098,1.208,1.2059,1.2026,1.2011,1.1987,1.1949,1.1918,1.1911,1.1881,1.1857,1.1863,1.1849,1.1849,1.1846,1.1932,1.1943,1.1845,1.1845,1.1845,1.1845,1.1845,1.1845,1.21,1.2055,1.2057,1.2006,1.1999,1.1964,1.1952,1.1936,1.1924,1.1881,1.1856,1.1853,1.184,1.1809,1.1781,1.178,1.1766,1.1749,1.1749,1.1829,1.184,1.185,1.1861,1.1747,1.1746,1.1666,1.1665,1.1664]}]]